Location: Stonelick Lake State Park
(39.2170°N, 84.0850°W)
Time: 20:12:09
(UTC-04:00)

Daily predictions for brighter satellites

Satellite Brightness Start Highest point End
(mag) Time Altitude Azimuth Time Altitude Azimuth Time Altitude Azimuth
HJ-1C 3.4 20:34:10 10° S 20:37:27 83° W 20:40:45 10° NNW
OAO 2 Rocket 3.7 20:33:40 10° WSW 20:38:28 49° S 20:43:21 10° E
Meteor 1-29 3.1 20:38:00 10° N 20:41:28 80° WNW 20:44:56 10° SSW
Cosmos 2297 Rocket 2.6 20:38:12 10° NNW 20:43:39 46° ENE 20:49:04 10° SE
Cosmos 2082 3.8 20:38:55 10° NNW 20:44:30 61° ENE 20:50:03 10° SE
Meteor 2-16 Rocket 4.4 20:39:46 10° S 20:45:49 78° E 20:51:55 10° N
Meteor 1-5 Rocket 4.1 20:41:08 10° S 20:46:27 83° E 20:51:58 10° N
ALOS 2.5 20:43:40 10° SSE 20:48:12 53° ENE 20:52:45 10° N
ATLAS 2A CENTAUR R/B 4.0 20:49:25 10° WSW 20:50:43 11° SW 20:51:44 10° SSW
Cosmos 1346 Rocket 2.7 20:46:49 10° N 20:50:47 78° E 20:54:47 10° SSE
Helios 1A 3.7 20:49:33 10° S 20:53:39 57° W 20:57:48 10° NNW
USA 186 2.3 20:52:22 10° SE 20:55:10 33° ENE 20:57:49 10° N
OTV 4 1.7 20:53:24 10° W 20:56:05 31° SSW 20:58:28 12° SE
NOSS 3-4 (A) 4.1 20:50:47 10° NW 20:57:51 74° WSW 21:05:18 10° SSE
NOSS 3-4 (C) 4.1 20:50:55 10° NW 20:57:58 74° WSW 21:05:26 10° SSE
SL-24 R/B - RUBIN 2 4.3 20:57:12 10° SSW 21:02:56 71° ESE 21:09:23 10° NE
Cosmos 1461 3.1 20:59:10 10° NW 21:03:11 64° WSW 21:07:03 10° SSE
Cosmos 1605 Rocket 4.0 21:05:31 10° S 21:11:52 88° E 21:18:09 10° N
CZ-4B DEB 3.6 21:09:30 10° S 21:12:42 53° W 21:15:56 10° NNW
Cosmos 1743 4.0 21:13:07 18° ESE 21:14:32 22° E 21:17:38 10° NE
BREEZE-M DEB (TANK) 4.5 20:55:05 10° SW 21:16:43 73° SSE 21:22:02 10° ENE
Tiangong 1 1.8 21:13:58 10° WNW 21:16:59 46° N 21:18:49 20° ENE
RESURS DK-1 3.4 21:14:04 10° N 21:17:44 30° ENE 21:19:38 21° ESE
Cosmos 1697 Rocket 2.7 21:12:31 10° S 21:18:02 58° ESE 21:23:34 10° NNE
Cosmos 2100 Rocket 4.3 21:15:45 10° SSE 21:21:39 44° E 21:27:29 10° NNE
H-2A R/B 3.5 21:20:45 17° E 21:21:41 18° ENE 21:24:31 10° NNE
Iridium 4 Rocket 3.2 21:19:19 10° N 21:24:16 66° E 21:28:46 10° S
BREEZE-M DEB (TANK) 4.3 21:21:01 10° WSW 21:25:00 80° NNW 21:39:42 10° ENE
Cosmos 1626 Rocket 3.5 21:21:11 10° N 21:25:36 90° WNW 21:29:56 10° S
Envisat 3.7 21:23:26 20° ESE 21:26:08 34° ENE 21:30:41 10° N
YAOGAN 11 4.4 21:24:13 19° SE 21:27:10 48° ENE 21:31:28 10° N
Cosmos 2298 Rocket 4.0 21:22:25 10° NNW 21:27:44 70° ENE 21:31:50 17° SSE
SL-16 R/B 4.2 21:31:23 10° ENE 21:31:23 10° ENE 21:31:32 10° ENE
Cosmos 1937 Rocket 3.9 21:24:03 10° N 21:29:08 46° ENE 21:32:04 23° SE
Cosmos 2084 3.3 21:26:47 10° NNW 21:30:52 76° NE 21:33:09 27° SE
Cosmos 2061 Rocket 4.2 21:25:46 10° SSE 21:31:47 48° E 21:37:46 10° NNE
Cosmos 1602 Rocket 3.8 21:30:55 10° NNW 21:35:22 70° W 21:39:45 10° S
Cosmos 220 Rocket 4.5 21:35:30 10° NNW 21:39:38 57° WSW 21:43:08 14° S
Cosmos 990 Rocket 4.5 21:34:59 10° N 21:39:59 42° ENE 21:41:59 30° ESE
H-2A R/B 3.9 21:36:25 10° S 21:40:08 44° W 21:43:55 10° NNW
Cosmos 1980 Rocket 2.2 21:36:03 10° S 21:41:32 54° ESE 21:47:06 10° NNE
Lacrosse 5 1.9 21:37:37 10° NW 21:42:40 64° NE 21:44:53 32° ESE
deb Chang Zheng 4 4.2 21:40:02 10° NNE 21:44:07 34° E 21:44:26 34° ESE
Cosmos 1975 4.2 21:45:15 10° SSW 21:49:07 41° W 21:53:02 10° N
SPOT 5 3.6 21:49:21 32° E 21:50:23 35° ENE 21:54:45 10° N
Cosmos 1459 Rocket 3.8 21:44:45 10° S 21:50:45 72° E 21:56:50 10° NNE
ERS-1 Rocket 2.9 21:48:21 25° SSE 21:51:19 79° ENE 21:56:21 10° N
Cosmos 2150 Rocket 4.0 21:48:15 10° NNW 21:53:25 79° WSW 21:56:30 25° S
Lacrosse 5 rocket 2.9 21:53:31 10° WNW 21:56:30 23° WSW 21:57:58 18° SSW
BREEZE-M TANK 3.0 21:46:35 10° WNW 21:56:47 75° NNE 21:58:04 42° E
Cosmos 1666 4.3 22:00:57 22° NE 22:00:57 22° NE 22:02:36 10° NNE
Cosmos 2058 Rocket 3.8 22:03:45 38° ENE 22:03:45 38° ENE 22:07:18 10° NNE
Cosmos 2098 Rocket 4.2 22:00:54 31° SSE 22:03:49 49° E 22:09:25 10° NNE
SJ-11-01 4.5 22:01:22 25° S 22:04:03 69° W 22:08:44 10° NNW
Cosmos 1763 Rocket 3.3 21:59:00 10° S 22:04:04 70° ESE 22:09:08 10° NNE
SPOT 1/Viking Rocket 4.5 22:05:15 30° ENE 22:05:29 30° ENE 22:09:58 10° N
Cosmos 1606 Rocket 3.4 22:06:33 52° SSE 22:07:31 74° E 22:11:57 10° N
CZ-4 DEB 3.7 22:07:23 40° SW 22:07:49 43° W 22:10:51 10° NNW
Cosmos 2263 Rocket 3.9 22:04:56 10° N 22:08:36 18° NE 22:09:09 17° ENE
Cosmos 1898 Rocket 4.1 22:04:20 10° NNW 22:09:28 53° WSW 22:12:34 23° S
DELTA 2 R/B (1) 4.1 22:06:37 10° W 22:11:54 46° SSW 22:13:06 40° S
Cosmos 2227 Rocket 4.3 22:08:00 10° NW 22:12:13 22° W 22:16:26 10° SSW
Terra 4.0 22:15:54 12° NE 22:15:54 12° NE 22:16:58 10° NE
YAOGAN 6 3.9 22:16:13 31° NNE 22:16:13 31° NNE 22:18:33 10° N
Cosmos 2322 Rocket 3.1 22:16:55 30° ENE 22:16:55 30° ENE 22:20:13 10° NE
Cosmos 1125 Rocket 4.2 22:10:53 10° N 22:15:40 36° ENE 22:15:42 36° ENE
Cosmos 1340 2.8 22:16:50 10° NNW 22:20:21 71° NW 22:20:21 71° NW
OAO 2 Rocket 3.6 22:18:06 10° W 22:22:50 49° SSW 22:22:50 49° SSW
Cosmos 1939 Rocket 3.7 22:25:01 40° SW 22:25:56 47° W 22:29:59 10° NNW
Meteor 1-21 4.3 22:21:19 10° NNW 22:27:07 80° W 22:29:02 44° S
Cosmos 2297 Rocket 4.2 22:22:59 10° NW 22:27:20 23° W 22:31:40 10° SSW
Meteor 2-9 Rocket 4.0 22:26:59 65° SE 22:27:31 70° E 22:32:55 10° NNE
Cosmos 841 Rocket 3.5 22:23:27 17° SSW 22:27:32 81° WNW 22:32:46 10° NNE
SL-08 R/B 4.3 22:25:29 35° S 22:28:18 84° E 22:34:30 10° N
Cosmos 1802 Rocket 4.3 22:22:44 10° SSW 22:29:05 68° W 22:35:32 10° N
Cosmos 2360 4.2 22:23:35 10° SSW 22:29:18 85° WNW 22:35:04 10° NNE
Cosmos 1726 Rocket 3.6 22:30:18 69° WSW 22:30:35 72° W 22:34:59 10° N
MetOp-A 4.0 22:33:48 72° SSE 22:34:23 86° ENE 22:39:46 10° NNW
Cosmos 2227 4.1 22:30:53 10° NNW 22:36:38 82° WSW 22:37:26 67° S
Cosmos 2016 Rocket 4.2 22:35:00 21° SSW 22:39:14 66° W 22:45:25 10° N
ASTEX 1 3.6 22:40:08 10° N 22:45:06 68° W 22:45:35 64° WSW
Cosmos 1375 Rocket 4.4 22:50:12 61° S 22:51:25 80° ESE 22:58:03 10° NNE
Tiangong 1 4.3 22:50:29 10° WNW 22:50:47 12° WNW 22:50:47 12° WNW
BREEZE-M DEB (TANK) 4.0 22:52:10 10° NW 22:53:28 31° NW 22:53:28 31° NW
RESURS DK-1 4.4 22:52:28 10° NW 22:55:34 21° WSW 22:55:34 21° WSW
H-2A R/B 3.5 22:57:54 33° W 22:57:54 33° W 23:01:13 10° NNW
USA 245 4.5 23:02:14 73° SW 23:02:39 76° WSW 23:09:02 10° NNW
SL-16 R/B 2.6 23:13:10 58° N 23:13:10 58° N 23:17:48 10° NNE
ARGOS 3.6 23:16:23 58° NW 23:16:23 58° NW 23:20:55 10° NNW
Tsikada Rocket 4.5 23:12:26 10° NNW 23:18:40 55° W 23:19:19 53° WSW
Lacrosse 5 4.0 23:21:38 10° WNW 23:24:05 18° WSW 23:24:05 18° WSW
H-2A R/B 3.3 23:27:29 35° N 23:27:29 35° N 23:30:18 10° N
Cosmos 2360 Rocket 4.3 23:30:08 17° NE 23:30:08 17° NE 23:31:25 10° NNE
Cosmos 1980 Rocket 4.4 23:21:32 10° WSW 23:25:53 22° NW 23:30:17 10° N
BREEZE-M DEB (TANK) 4.4 23:26:59 10° WSW 23:37:37 63° NW 23:37:37 63° NW
Terra 3.9 23:54:47 24° NNW 23:54:47 24° NNW 23:56:44 10° NNW
Cosmos 2263 Rocket 3.5 23:47:32 10° NNW 23:50:51 37° NW 23:50:51 37° NW
